Location: Marineo
(37.9500°N, 13.4170°E)
Time: 21:52:39
(UTC+01:00)

ISS - Visible Passes

Search period start: 21 February 2020 00:00
Search period end: 02 March 2020 00:00
Orbit: 415 x 422 km, 51.6° (Epoch: 22 February)

Date Brightness Start Highest point End Pass type
(mag) Time Alt. Az. Time Alt. Az. Time Alt. Az.
21 Feb -2.6 05:52:55 10° SSW 05:56:08 43° SE 05:59:21 10° ENE visible
22 Feb -1.6 05:06:51 16° S 05:08:38 24° SE 05:11:25 10° ENE visible
23 Feb -0.6 04:21:54 13° ESE 04:21:54 13° ESE 04:22:58 10° E visible
23 Feb -3.6 05:54:54 14° WSW 05:57:37 55° NW 06:00:58 10° NE visible
24 Feb -3.9 05:09:44 73° SSW 05:09:59 82° SE 05:13:22 10° NE visible
25 Feb -1.0 04:24:23 20° ENE 04:24:23 20° ENE 04:25:37 10° ENE visible
25 Feb -2.3 05:57:21 14° WNW 05:59:19 23° NNW 06:02:05 10° NNE visible
26 Feb -2.7 05:11:51 33° NNW 05:11:51 33° NNW 05:14:38 10° NE visible
27 Feb -1.0 04:26:15 17° NE 04:26:15 17° NE 04:27:07 10° NE visible
27 Feb -1.4 05:59:34 10° NW 06:01:12 13° NNW 06:02:49 10° N visible
28 Feb -1.7 05:13:30 17° NNW 05:13:30 17° NNW 05:15:33 10° NNE visible
29 Feb -0.8 04:27:43 12° NNE 04:27:43 12° NNE 04:28:10 10° NNE visible
01 Mar -1.1 05:14:50 10° NNW 05:15:11 10° NNW 05:15:48 10° N visible
